Location: Wildlife_Club
(35.6000°N, 81.4330°W)
Time: 09:13:35
(UTC-04:00)

Courier 1B Rocket - Pass Details

Date: 24 June 2019
Orbit: 920 x 1202 km, 28.3° (Epoch: 24 August)

Event Time Altitude Azimuth Distance (km) Brightness Sun altitude
Exits shadow 03:11:21 18° 137° (SE) 2,367 6.8 -26.1°
Drops below altitude 10° 03:14:23 10° 112° (ESE) 2,865 7.5 -25.9°
Sets 03:17:49 0° 96° (E) 3,766 8.3 -25.5°
